Regional Weather Roundup
Issued by NWS Huntsville, AL

Home | Current Version | Previous Version | Text Only | Print | Product List | Glossary On
Versions: 1 2 3 4 5 6 7 8 9 10 11 12 13 14 15 16 17 18 19 20 21 22 23 24 25 26 27
000
ASUS44 KHUN 210310
RWRHUN

WEATHER ROUNDUP FOR THE TENNESSEE VALLEY
NATIONAL WEATHER SERVICE HUNTSVILLE AL
1000 PM CDT FRI OCT 20 2017

ALZ001>004-210400-
NORTHWEST ALABAMA

CITY           SKY/WX    TMP DP  RH WIND       PRES   REMARKS
COURTLAND HCN    N/A     54 N/A N/A CALM        N/A
RUSSELLVILLE     N/A     54 N/A N/A MISG        N/A
SHOALS AIRPORT PTCLDY    54  47  77 CALM      30.18R
SHOALS TVA RES   N/A     57 N/A N/A MISG        N/A
$$

ALZ005>007-016-210400-
NORTH CENTRAL ALABAMA

CITY           SKY/WX    TMP DP  RH WIND       PRES   REMARKS
CULLMAN AG STN   N/A     50 N/A N/A CALM        N/A
DECATUR AP     PTCLDY    55  51  86 E6        30.18F
HUNTSVILLE AP  CLOUDY    54  52  93 E7        30.18S
MERIDIANVILLE  PTCLDY    52  48  87 CALM      30.19S
REDSTONE ARSN  CLOUDY    56  51  83 CALM      30.17F
VINEMONT AP    FAIR      60  44  55 SE3       30.21S
$$

ALZ008>010-210400-
NORTHEAST ALABAMA

CITY           SKY/WX    TMP DP  RH WIND       PRES   REMARKS
ALBERTVILLE    MOCLDY    54  54 100 E5        30.20R
FORT PAYNE     CLOUDY    50  46  87 CALM      30.21R
SCOTTSBORO AP  CLOUDY    54  54 100 CALM      30.22R
SCOTTSBORO HCN   N/A     52 N/A N/A MISG        N/A
VALLEY HEAD      N/A     48 N/A N/A MISG        N/A
$$

TNZ076-096-097-210400-
SOUTHEASTERN MIDDLE TENNESSEE

CITY           SKY/WX    TMP DP  RH WIND       PRES   REMARKS
TULLAHOMA      CLEAR     50  46  87 CALM      30.22S
WINCHESTER     CLEAR     50  46  87 CALM        N/A
$$

...SURROUNDING SITES...

CITY           SKY/WX    TMP DP  RH WIND       PRES   REMARKS
ATLANTA        CLOUDY    64  47  53 E3        30.22S
ANNISTON       CLOUDY    58  53  84 NE5       30.21R
BIRMINGHAM     PTCLDY    60  51  72 CALM      30.21R
CHATTANOOGA    PTCLDY    55  53  93 CALM      30.23R
CORINTH        FAIR      54  54 100 CALM      30.15S
DALTON         CLEAR     52  52 100 CALM      30.24S
GADSDEN        CLOUDY    50  50 100 CALM      30.21R
GOLDEN TRNGL   PTCLDY    66  57  72 SE6       30.15R
HALEYVILLE     FAIR      55  53  93 E3        30.20R
JACKSON TN     MOCLDY    54  53  97 CALM      30.14S
MEMPHIS        CLOUDY    67  55  65 SE6       30.11S
NASHVILLE      PTCLDY    58  50  75 S5        30.17F
OXFORD MS      FAIR      63  54  72 VRB6      30.13F
ROME           CLEAR     53  52  96 CALM      30.21S
SAVANNAH       CLEAR     52  50  93 CALM      30.15R
SELMER         CLEAR     59  50  72 S5        30.15R
TUPELO         CLEAR     63  53  70 E5        30.14R
TUSCALOOSA     CLOUDY    61  54  77 CALM      30.16R
$$

...GULF COAST WEATHER...

CITY           SKY/WX    TMP DP  RH WIND       PRES   REMARKS
GULFPORT       MOCLDY    73  68  84 E8        30.08S
PASCAGOULA     MOCLDY    71  65  81 CALM      30.10S
MOBILE         MOCLDY    70  63  78 E5        30.13R
GULF SHORES    MOCLDY    71  68  91 CALM      30.12R
PENSACOLA      MOCLDY    70  63  78 CALM      30.11R
DESTIN         PTCLDY    75  57  53 E5        30.13R
PANAMA CITY    PTCLDY    73  62  68 NE6       30.12R
APPALACHICOLA  CLOUDY    72  64  76 NE6       30.11R
$$





USA.gov is the U.S. government's official web portal to all federal, state and local government web resources and services.